GW5460 Weather Reports


time (UTC)temp
F
wind
direction
speed
knots
gust
knots
rain 1hr
in
rain 24hr
in
rain mn
in
humidity
%
barometer
mb
20260505230519 64 221 0.0 1.7 0.00 0.00 0.00 73 1015.7
20260505225519 64 285 0.0 1.7 0.00 0.00 0.00 72 1015.8
20260505224537 63 214 0.0 1.7 0.00 0.00 0.00 73 1015.9
20260505223536 63 278 0.0 1.7 0.00 0.00 0.00 73 1015.9
20260505222517 63 118 0.0 3.5 0.00 0.00 0.00 73 1015.9
20260505221517 64 135 0.9 3.5 0.00 0.00 0.00 71 1016.0
20260505220517 64 229 0.0 1.7 0.00 0.00 0.00 72 1016.1
20260505215517 64 220 0.0 2.6 0.00 0.00 0.00 71 1016.1
20260505214517 65 176 0.0 2.6 0.00 0.00 0.00 70 1016.1
20260505213518 65 272 0.0 2.6 0.00 0.00 0.00 71 1016.2
20260505212517 64 185 0.9 2.6 0.00 0.00 0.00 71 1016.2
20260505211518 64 190 0.9 4.3 0.00 0.00 0.00 71 1016.2
20260505210518 64 207 0.9 3.5 0.00 0.00 0.00 73 1016.3
20260505205518 63 212 0.0 1.7 0.00 0.00 0.00 74 1016.3
20260505204518 63 219 0.9 2.6 0.00 0.00 0.00 75 1016.4
20260505203519 63 203 0.0 2.6 0.00 0.00 0.00 76 1016.5
20260505202520 62 228 0.0 1.7 0.00 0.00 0.00 76 1016.5
20260505201539 62 193 0.9 2.6 0.00 0.00 0.00 76 1016.5
20260505200516 62 166 0.0 1.7 0.00 0.00 0.00 77 1016.5
20260505195537 62 185 0.9 3.5 0.00 0.00 0.00 77 1016.6
20260505194517 62 174 0.9 2.6 0.00 0.00 0.00 78 1016.6
20260505193517 61 214 0.9 3.5 0.00 0.00 0.00 78 1016.6
20260505192517 61 205 0.9 2.6 0.00 0.00 0.00 79 1016.6
20260505191537 60 213 0.9 5.2 0.00 0.00 0.00 78 1016.6
20260505190518 61 152 1.7 3.5 0.00 0.00 0.00 77 1016.5
20260505185517 61 142 0.9 2.6 0.00 0.00 0.00 78 1016.6
20260505184518 60 179 0.9 2.6 0.00 0.00 0.00 79 1016.6
20260505183539 60 224 0.9 2.6 0.00 0.00 0.00 79 1016.5
20260505182519 60 204 0.9 4.3 0.00 0.00 0.00 79 1016.6
20260505181518 59 146 0.9 2.6 0.00 0.00 0.00 80 1016.5
20260505180519 59 191 0.9 1.7 0.00 0.00 0.00 81 1016.4
20260505175520 58 126 2.6 6.1 0.00 0.00 0.00 82 1016.4
20260505174519 58 127 2.6 5.2 0.00 0.00 0.00 82 1016.5
20260505173517 57 134 1.7 6.1 0.00 0.00 0.00 84 1016.4
20260505172557 57 123 0.9 4.3 0.00 0.00 0.00 84 1016.4
20260505171517 57 129 1.7 5.2 0.00 0.00 0.00 84 1016.3
20260505170517 57 134 1.7 4.3 0.00 0.00 0.00 85 1016.2
20260505165537 56 207 0.0 1.7 0.00 0.00 0.00 87 1016.2
20260505164518 56 201 0.9 2.6 0.00 0.00 0.00 87 1016.2
20260505163517 55 155 0.9 2.6 0.00 0.00 0.00 88 1016.1
20260505162518 55 113 2.6 6.1 0.00 0.00 0.00 88 1016.0
20260505161519 55 161 0.9 3.5 0.00 0.00 0.00 89 1016.0
20260505160518 55 130 1.7 4.3 0.00 0.00 0.00 90 1016.0
20260505152519 54 137 0.9 2.6 0.00 0.00 0.00 92 1015.9
20260505151519 54 113 0.9 3.5 0.00 0.00 0.00 92 1015.9
20260505150600 54 117 0.9 1.7 0.00 0.00 0.00 92 1015.8
20260505140537 53 211 0.9 1.7 0.00 0.00 0.00 94 1015.3
20260505124518 52 128 0.0 1.7 0.00 0.00 0.00 96 1014.9
20260505123539 52 107 0.9 1.7 0.00 0.00 0.00 96 1014.8
20260505122518 52 216 0.0 1.7 0.00 0.00 0.00 96 1014.9
20260505121519 52 182 0.0 0.9 0.00 0.00 0.00 95 1014.9
20260505120519 52 167 0.0 0.9 0.00 0.00 0.00 95 1014.8
20260505115519 52 207 0.0 1.7 0.00 0.00 0.00 96 1014.8
20260505114539 51 129 0.0 1.7 0.00 0.00 0.00 96 1014.8
20260505113519 51 199 0.0 0.9 0.00 0.00 0.00 97 1014.7
20260505112526 51 218 0.0 0.9 0.00 0.00 0.00 98 1014.7
20260505111523 50 202 0.0 1.7 0.00 0.00 0.00 98 1014.6
20260505110517 50 223 0.0 1.7 0.00 0.00 0.00 98 1014.5
20260505101518 50 164 0.0 1.7 0.00 0.00 0.00 97 1014.2
20260505100518 50 177 0.0 1.7 0.00 0.00 0.00 97 1014.2
20260505095520 50 197 0.0 1.7 0.00 0.00 0.00 97 1014.2
20260505094518 50 211 0.9 1.7 0.00 0.00 0.00 97 1014.1
20260505093518 50 215 0.0 1.7 0.00 0.00 0.00 96 1014.0
20260505092538 51 197 0.9 1.7 0.00 0.00 0.00 96 1014.0
20260505091518 51 165 0.0 1.7 0.00 0.00 0.00 96 1013.9
20260505090538 51 210 0.0 0.9 0.00 0.00 0.00 95 1013.8
20260505085537 51 194 0.0 1.7 0.00 0.00 0.00 95 1013.7
20260505084518 51 142 0.9 2.6 0.00 0.00 0.00 95 1013.7
20260505083516 52 178 0.9 2.6 0.00 0.00 0.00 94 1013.8
20260505082517 52 167 0.0 1.7 0.00 0.00 0.00 93 1013.8
20260505081518 52 210 0.9 1.7 0.00 0.00 0.00 92 1013.7
20260505080538 53 184 0.0 1.7 0.00 0.00 0.00 92 1013.6
20260505075517 53 181 0.9 1.7 0.00 0.00 0.00 92 1013.5
20260505074517 53 222 0.0 1.7 0.00 0.00 0.00 91 1013.4
20260505073518 53 159 0.9 2.6 0.00 0.00 0.00 90 1013.3
20260505072539 54 197 0.9 1.7 0.00 0.00 0.00 90 1013.2
20260505071518 54 156 0.9 3.5 0.00 0.00 0.00 89 1013.1
20260505070519 55 104 2.6 5.2 0.00 0.00 0.00 89 1013.1
20260505065600 55 136 0.9 2.6 0.00 0.00 0.00 88 1012.9
20260505064518 55 164 0.9 2.6 0.00 0.00 0.00 88 1012.8
20260505063518 55 162 0.9 2.6 0.00 0.00 0.00 87 1012.6
20260505062538 56 120 2.6 4.3 0.00 0.00 0.00 87 1012.5
20260505061538 56 195 1.7 3.5 0.00 0.00 0.00 87 1012.5
20260505060536 56 127 2.6 4.3 0.00 0.00 0.00 87 1012.5
20260505055517 56 128 2.6 4.3 0.00 0.00 0.00 86 1012.4
20260505054516 57 132 1.7 4.3 0.00 0.00 0.00 86 1012.3
20260505053557 57 152 1.7 6.1 0.00 0.00 0.00 85 1012.3
20260505052516 58 157 1.7 4.3 0.00 0.00 0.00 84 1012.2
20260505051517 59 153 1.7 5.2 0.00 0.00 0.00 83 1012.2
20260505050517 59 130 2.6 6.1 0.00 0.00 0.00 82 1012.1
20260505041517 63 183 0.0 0.9 0.00 0.00 0.00 75 1011.3
20260505040519 64 197 0.0 1.7 0.00 0.00 0.00 73 1011.1
20260505035559 64 166 0.0 0.9 0.00 0.00 0.00 72 1010.9
20260505034519 65 215 0.9 1.7 0.00 0.00 0.00 71 1010.8
20260505033539 66 221 0.0 1.7 0.00 0.00 0.00 70 1010.7
20260505032520 66 178 0.9 2.6 0.00 0.00 0.00 69 1010.7
20260505031519 67 212 0.9 3.5 0.00 0.00 0.00 69 1010.6
20260505030517 67 218 0.9 3.5 0.00 0.00 0.00 69 1010.4
20260505025539 68 205 1.7 4.3 0.00 0.00 0.00 70 1010.3
20260505024539 68 213 0.9 3.5 0.00 0.00 0.00 70 1010.3
20260505023538 69 161 0.9 4.3 0.00 0.00 0.00 69 1010.3
20260505022518 69 186 1.7 5.2 0.00 0.00 0.00 68 1010.3
20260505021517 70 178 1.7 5.2 0.00 0.00 0.00 68 1010.2
20260505020517 71 186 1.7 4.3 0.00 0.00 0.00 68 1010.1
20260505015517 71 189 1.7 3.5 0.00 0.00 0.00 68 1010.1
20260505014518 71 173 0.9 2.6 0.00 0.00 0.00 68 1010.1
20260505013518 72 188 1.7 3.5 0.00 0.00 0.00 67 1010.2
20260505012519 72 217 0.9 3.5 0.00 0.00 0.00 66 1010.2
20260505011519 72 217 1.7 4.3 0.00 0.00 0.00 66 1010.4
20260505010559 72 193 1.7 4.3 0.00 0.00 0.00 66 1010.5
20260505005518 72 188 1.7 3.5 0.00 0.00 0.00 66 1010.4
20260505004518 72 217 0.9 2.6 0.00 0.00 0.00 66 1010.5
20260505003519 72 141 1.7 5.2 0.00 0.00 0.00 65 1010.6
20260505002518 72 209 1.7 4.3 0.00 0.00 0.00 65 1010.6
20260505001519 73 247 0.9 2.6 0.00 0.00 0.00 65 1010.6
20260505000519 73 190 2.6 5.2 0.00 0.00 0.00 63 1010.7
20260504235516 73 173 1.7 5.2 0.00 0.00 0.00 63 1010.8
20260504234518 73 129 1.7 7.0 0.00 0.00 0.00 63 1010.9
20260504233517 73 163 2.6 8.7 0.00 0.00 0.00 63 1011.0
20260504232517 73 107 3.5 7.8 0.00 0.00 0.00 64 1011.0
20260504231537 72 126 2.6 9.6 0.00 0.00 0.00 63 1011.1